W1BKW Weather Reports


time (UTC)temp
C
wind
direction
speed
KPH
gust
KPH
rain 1hr
cm
rain 24hr
cm
rain mn
cm
humidity
%
barometer
mb
20260507065421 7 84 3.2 4.8 0.00 0.05 0.05 99 1004.5
20260507063920 7 99 4.8 9.7 0.00 0.05 0.05 98 1004.0
20260507062417 7 139 3.2 3.2 0.00 0.05 0.05 99 1003.9
20260507060916 7 116 1.6 3.2 0.00 0.05 0.05 99 1004.2
20260507055416 7 50 1.6 8.0 0.00 0.05 0.05 99 1003.8
20260507053913 7 127 0.0 1.6 0.00 0.05 0.05 99 1003.8
20260507052412 7 118 1.6 3.2 0.00 0.05 0.05 99 1003.4
20260507050909 7 164 0.0 0.0 0.18 0.05 0.05 99 1003.9
20260507045404 8 120 1.6 3.2 0.00 0.03 0.03 99 1003.9
20260507043900 8 325 11.3 22.5 0.00 0.03 0.03 99 1003.6
20260507042356 8 279 14.5 16.1 0.13 0.03 0.03 96 1004.2
20260507040852 8 304 8.0 12.9 0.00 0.00 0.00 97 1004.1
20260507035350 9 300 11.3 16.1 0.18 1.80 1.80 97 1004.1
20260507033848 8 277 6.4 17.7 0.00 1.78 1.78 99 1003.9
20260507032344 9 285 17.7 17.7 0.18 1.78 1.78 99 1003.6
20260507030840 9 130 1.6 8.0 0.13 1.75 1.75 99 1003.5
20260507025337 10 91 1.6 4.8 0.18 1.73 1.73 99 1003.4
20260507023834 10 166 0.0 0.0 0.00 1.70 1.70 99 1003.3
20260507022330 10 326 4.8 9.7 0.00 1.68 1.68 99 1003.1
20260507020825 11 197 0.0 1.6 0.00 1.68 1.68 99 1002.9
20260507015322 11 138 1.6 1.6 0.00 1.68 1.68 99 1002.8
20260507013818 11 181 1.6 8.0 0.00 1.68 1.68 99 1003.0
20260507012314 11 135 1.6 1.6 0.00 1.68 1.68 99 1002.8
20260507010814 11 151 1.6 3.2 0.00 1.65 1.65 99 1003.0
20260507005309 12 186 0.0 3.2 0.30 1.63 1.63 99 1002.8
20260507003806 12 238 8.0 12.9 1.68 1.50 1.50 99 1002.7
20260507002306 13 235 6.4 9.7 0.48 1.19 1.19 99 1002.1
20260507000802 13 186 0.0 3.2 0.13 1.09 1.09 99 1002.0
20260506235256 13 176 1.6 3.2 0.13 1.04 1.04 99 1002.0
20260506233754 13 169 6.4 8.0 0.30 1.02 1.02 99 1002.1
20260506232254 13 169 3.2 3.2 0.18 0.97 0.97 99 1002.0
20260506230751 13 166 0.0 8.0 0.00 0.94 0.94 99 1002.4
20260506225248 13 217 1.6 3.2 0.13 0.94 0.94 99 1002.3
20260506223744 14 172 1.6 4.8 0.00 0.91 0.91 99 1002.8
20260506222238 15 166 1.6 8.0 0.00 0.91 0.91 99 1002.7
20260506220737 15 188 3.2 12.9 0.00 0.91 0.91 99 1002.8
20260506215236 15 227 3.2 8.0 0.00 0.91 0.91 99 1003.1
20260506213734 15 246 4.8 11.3 0.18 0.91 0.91 99 1002.8
20260506212230 14 165 3.2 11.3 0.13 0.89 0.89 99 1003.2
20260506210725 14 164 3.2 3.2 0.00 0.84 0.84 99 1003.2
20260506205220 13 158 3.2 4.8 0.00 0.81 0.81 99 1003.2
20260506203718 13 163 1.6 8.0 0.18 0.81 0.81 99 1003.0
20260506202215 13 125 12.9 20.9 0.18 0.79 0.79 99 1003.1
20260506200711 13 244 3.2 8.0 0.13 0.76 0.76 99 1003.2
20260506195207 13 193 3.2 3.2 0.18 0.74 0.74 99 1003.6
20260506193704 13 177 0.0 9.7 0.13 0.71 0.71 99 1004.0
20260506192200 13 172 1.6 3.2 0.13 0.66 0.66 99 1003.9
20260506190656 13 160 1.6 3.2 0.79 0.56 0.56 99 1004.4
20260506185152 13 321 8.0 9.7 0.48 0.30 0.30 99 1004.5
20260506183649 13 217 1.6 4.8 0.30 0.23 0.23 99 1004.6
20260506182145 13 185 1.6 1.6 0.48 0.13 0.13 99 1004.6
20260506180643 14 304 3.2 3.2 0.00 0.03 0.03 99 1004.8
20260506175138 15 155 1.6 1.6 0.18 0.03 0.03 98 1004.5
20260506173637 14 266 6.4 8.0 0.00 0.00 0.00 96 1004.9
20260506172133 14 201 3.2 4.8 0.00 0.00 0.00 96 1005.0
20260506170631 14 280 4.8 8.0 0.00 0.00 0.00 94 1005.5
20260506165127 14 189 1.6 3.2 0.00 0.00 0.00 93 1005.8
20260506163623 14 170 1.6 8.0 0.00 0.00 0.00 93 1006.0
20260506162122 15 172 0.0 1.6 0.00 0.00 0.00 93 1006.3
20260506160619 15 134 1.6 8.0 0.00 0.00 0.00 90 1006.7
20260506155116 15 184 1.6 3.2 0.00 0.00 0.00 87 1006.9
20260506152329 15 174 0.0 3.2 0.00 0.00 0.00 86 1006.8
20260506150827 15 170 1.6 3.2 0.00 0.00 0.00 87 1006.6
20260506145322 14 29 3.2 4.8 0.00 0.00 0.00 87 1006.7
20260506143821 13 272 4.8 4.8 0.00 0.00 0.00 88 1006.8
20260506142319 14 181 1.6 4.8 0.00 0.00 0.00 89 1006.8
20260506140818 13 193 1.6 3.2 0.00 0.00 0.00 90 1006.9
20260506135314 13 56 1.6 3.2 0.00 0.00 0.00 91 1007.1
20260506133810 13 161 0.0 0.0 0.00 0.00 0.00 91 1007.1
20260506132307 13 144 0.0 0.0 0.00 0.00 0.00 91 1006.9
20260506130804 13 158 0.0 1.6 0.00 0.00 0.00 90 1006.9
20260506125305 13 218 1.6 8.0 0.00 0.00 0.00 91 1007.2
20260506123800 13 176 1.6 3.2 0.00 0.00 0.00 88 1007.6
20260506122258 13 196 1.6 8.0 0.00 0.00 0.00 90 1007.8
20260506120756 13 162 0.0 1.6 0.00 0.00 0.00 90 1007.9
20260506115255 13 193 1.6 3.2 0.00 0.00 0.00 90 1008.0
20260506113754 13 174 1.6 1.6 0.00 0.00 0.00 92 1007.7
20260506112251 12 143 0.0 0.0 0.00 0.00 0.00 99 1007.6
20260506110749 12 125 1.6 1.6 0.00 0.00 0.00 99 1007.7
20260506105246 12 230 3.2 3.2 0.00 0.00 0.00 99 1007.9
20260506103744 12 187 0.0 1.6 0.00 0.00 0.00 99 1007.7
20260506102242 11 166 0.0 1.6 0.00 0.00 0.00 99 1007.9
20260506100739 11 167 0.0 0.0 0.00 0.00 0.00 99 1007.5
20260506095237 11 154 0.0 0.0 0.00 0.00 0.00 99 1007.6
20260506093737 11 154 0.0 1.6 0.00 0.00 0.00 99 1007.8
20260506092235 11 170 0.0 0.0 0.00 0.00 0.00 99 1007.4
20260506090733 12 153 0.0 0.0 0.00 0.00 0.00 98 1007.3
20260506085228 12 157 1.6 1.6 0.00 0.00 0.00 97 1007.4
20260506083724 13 147 0.0 1.6 0.00 0.00 0.00 93 1007.4
20260506082220 13 127 1.6 1.6 0.00 0.00 0.00 92 1007.4
20260506080719 13 146 0.0 1.6 0.00 0.00 0.00 93 1007.7
20260506072211 13 152 0.0 1.6 0.00 0.00 0.00 96 1007.6
20260506070709 13 143 1.6 1.6 0.00 0.00 0.00 97 1007.2